• In Romania
  • List of Countries
  • For 7 days
  • Water Temperature
  • Satellite Maps
  • Weather Map
  • Weather Widgets
  • user-avatar
    Login

    Hourly Weather Sveti Vlas

    Today, 25 February, Sunday

    Time Temperature Precipitation Wind Pressure Humidity
    00:00 -1°C° 0.2 mm 7 mps 752 mmHg 89%
    01:00 -2°C° 0.2 mm 8 mps 752 mmHg 88%
    02:00 -2°C° 0 mm 8 mps 752 mmHg 88%
    03:00 -4°C° 0 mm 8 mps 753 mmHg 87%
    04:00 -5°C° 0 mm 8 mps 753 mmHg 87%
    05:00 -6°C° 0 mm 9 mps 753 mmHg 86%
    06:00 -6°C° 0 mm 8 mps 754 mmHg 84%
    07:00 -7°C° 0 mm 8 mps 754 mmHg 83%
    08:00 -7°C° 0 mm 7 mps 755 mmHg 81%
    09:00 -6°C° 0 mm 7 mps 755 mmHg 77%
    10:00 -4°C° 0 mm 7 mps 755 mmHg 74%
    11:00 -4°C° 0 mm 7 mps 756 mmHg 71%
    12:00 -3°C° 0 mm 6 mps 756 mmHg 71%
    13:00 -2°C° 0 mm 6 mps 756 mmHg 72%
    14:00 -2°C° 0 mm 6 mps 756 mmHg 72%
    15:00 -2°C° 0.1 mm 6 mps 756 mmHg 75%
    16:00 -2°C° 0.1 mm 7 mps 755 mmHg 78%
    17:00 -3°C° 0.1 mm 7 mps 755 mmHg 81%
    18:00 -3°C° 0.2 mm 7 mps 755 mmHg 84%
    19:00 -3°C° 0.2 mm 7 mps 756 mmHg 86%
    20:00 -3°C° 0.2 mm 7 mps 756 mmHg 88%
    21:00 -4°C° 0.2 mm 8 mps 756 mmHg 88%
    22:00 -4°C° 0.2 mm 8 mps 755 mmHg 89%
    23:00 -3°C° 0.2 mm 9 mps 755 mmHg 90%

    Tomorrow, 26 February, Monday

    Time Temperature Precipitation Wind Pressure Humidity
    00:00 -3°C° 0.2 mm 9 mps 755 mmHg 89%
    01:00 -3°C° 0.2 mm 9 mps 755 mmHg 88%
    02:00 -3°C° 0.2 mm 10 mps 754 mmHg 87%
    03:00 -4°C° 0.4 mm 10 mps 754 mmHg 88%
    04:00 -4°C° 0.4 mm 10 mps 753 mmHg 89%
    05:00 -4°C° 0.4 mm 10 mps 753 mmHg 90%
    06:00 -4°C° 0.5 mm 11 mps 753 mmHg 90%
    07:00 -5°C° 0.5 mm 12 mps 752 mmHg 90%
    08:00 -5°C° 0.5 mm 12 mps 752 mmHg 90%
    09:00 -5°C° 0.6 mm 13 mps 752 mmHg 90%
    10:00 -5°C° 0.6 mm 13 mps 752 mmHg 90%
    11:00 -4°C° 0.6 mm 13 mps 751 mmHg 91%
    12:00 -4°C° 0.6 mm 14 mps 750 mmHg 91%
    13:00 -4°C° 0.6 mm 14 mps 750 mmHg 90%
    14:00 -4°C° 0.6 mm 14 mps 749 mmHg 90%
    15:00 -4°C° 1 mm 14 mps 748 mmHg 91%
    16:00 -4°C° 1 mm 15 mps 747 mmHg 91%
    17:00 -5°C° 1 mm 15 mps 747 mmHg 91%
    18:00 -5°C° 2 mm 15 mps 746 mmHg 92%
    19:00 -5°C° 2 mm 15 mps 746 mmHg 93%
    20:00 -5°C° 2 mm 14 mps 746 mmHg 94%
    21:00 -5°C° 2.3 mm 14 mps 746 mmHg 94%
    22:00 -6°C° 2.3 mm 13 mps 746 mmHg 94%
    23:00 -6°C° 2.3 mm 13 mps 745 mmHg 94%

    Day after tomorrow, 27 February, Tuesday

    Time Temperature Precipitation Wind Pressure Humidity
    00:00 -6°C° 0.7 mm 13 mps 746 mmHg 93%
    01:00 -6°C° 0.7 mm 13 mps 746 mmHg 92%
    02:00 -6°C° 0.7 mm 14 mps 746 mmHg 91%
    03:00 -7°C° 0.3 mm 13 mps 746 mmHg 91%
    04:00 -7°C° 0.3 mm 13 mps 746 mmHg 92%
    05:00 -8°C° 0.3 mm 12 mps 746 mmHg 92%
    06:00 -9°C° 0.4 mm 11 mps 747 mmHg 92%
    07:00 -9°C° 0.4 mm 10 mps 747 mmHg 92%
    08:00 -10°C° 0.4 mm 9 mps 748 mmHg 92%
    09:00 -10°C° 0.1 mm 9 mps 749 mmHg 92%
    10:00 -10°C° 0.1 mm 8 mps 749 mmHg 92%
    11:00 -8°C° 0.1 mm 7 mps 750 mmHg 92%
    12:00 -8°C° 0.1 mm 7 mps 750 mmHg 92%
    13:00 -8°C° 0.1 mm 6 mps 751 mmHg 92%
    14:00 -6°C° 0.1 mm 6 mps 751 mmHg 91%
    15:00 -6°C° 0.1 mm 6 mps 751 mmHg 92%
    16:00 -7°C° 0.1 mm 5 mps 752 mmHg 93%
    17:00 -7°C° 0.1 mm 5 mps 752 mmHg 93%
    18:00 -8°C° 0.1 mm 5 mps 753 mmHg 94%
    19:00 -8°C° 0.1 mm 4 mps 753 mmHg 94%
    20:00 -9°C° 0.1 mm 4 mps 754 mmHg 95%
    21:00 -9°C° 0 mm 4 mps 754 mmHg 95%
    22:00 -10°C° 0 mm 4 mps 755 mmHg 95%
    23:00 -10°C° 0 mm 4 mps 755 mmHg 95%

    28 February, Wednesday

    Time Temperature Precipitation Wind Pressure Humidity
    00:00 -10°C° 0 mm 4 mps 755 mmHg 95%
    01:00 -10°C° 0 mm 4 mps 755 mmHg 95%
    02:00 -10°C° 0 mm 4 mps 756 mmHg 95%
    03:00 -12°C° 0 mm 5 mps 755 mmHg 95%
    04:00 -12°C° 0 mm 5 mps 755 mmHg 94%
    05:00 -12°C° 0 mm 6 mps 755 mmHg 94%
    06:00 -12°C° 0.7 mm 6 mps 755 mmHg 95%
    07:00 -13°C° 0.7 mm 7 mps 755 mmHg 96%
    08:00 -12°C° 0.7 mm 7 mps 755 mmHg 96%
    09:00 -12°C° 1.3 mm 8 mps 754 mmHg 97%
    10:00 -11°C° 1.3 mm 9 mps 753 mmHg 97%
    11:00 -10°C° 1.3 mm 10 mps 752 mmHg 97%
    12:00 -11°C° 2.2 mm 11 mps 752 mmHg 97%
    13:00 -11°C° 2.2 mm 11 mps 751 mmHg 96%
    14:00 -11°C° 2.2 mm 12 mps 750 mmHg 96%
    15:00 -11°C° 1.2 mm 12 mps 750 mmHg 96%
    16:00 -12°C° 1.2 mm 12 mps 751 mmHg 95%
    17:00 -12°C° 1.2 mm 12 mps 751 mmHg 95%
    18:00 -12°C° 0.6 mm 11 mps 751 mmHg 94%
    19:00 -12°C° 0.6 mm 11 mps 752 mmHg 93%
    20:00 -12°C° 0.6 mm 11 mps 753 mmHg 92%
    21:00 -13°C° 0.3 mm 11 mps 753 mmHg 92%
    22:00 -13°C° 0.3 mm 11 mps 754 mmHg 92%
    23:00 -13°C° 0.3 mm 10 mps 755 mmHg 92%

    1 March, Thursday

    Time Temperature Precipitation Wind Pressure Humidity
    00:00 -13°C° 0.2 mm 10 mps 755 mmHg 92%
    01:00 -14°C° 0.2 mm 10 mps 756 mmHg 91%
    02:00 -14°C° 0.2 mm 9 mps 757 mmHg 91%
    03:00 -14°C° 0.1 mm 9 mps 757 mmHg 92%
    04:00 -15°C° 0.1 mm 8 mps 758 mmHg 92%
    05:00 -15°C° 0.1 mm 8 mps 758 mmHg 92%
    06:00 -15°C° 0 mm 7 mps 759 mmHg 92%
    07:00 -15°C° 0 mm 6 mps 759 mmHg 93%
    08:00 -15°C° 0 mm 6 mps 760 mmHg 93%
    09:00 -12°C° 0 mm 5 mps 760 mmHg 91%
    10:00 -10°C° 0 mm 5 mps 760 mmHg 89%
    11:00 -7°C° 0 mm 5 mps 760 mmHg 88%
    12:00 -5°C° 0 mm 4 mps 760 mmHg 87%
    13:00 -4°C° 0 mm 4 mps 759 mmHg 86%
    14:00 -2°C° 0 mm 3 mps 759 mmHg 86%
    15:00 -4°C° 0 mm 3 mps 759 mmHg 87%
    16:00 -3°C° 0 mm 2 mps 759 mmHg 88%
    17:00 -3°C° 0 mm 2 mps 759 mmHg 89%
    18:00 -5°C° 0 mm 2 mps 759 mmHg 89%
    19:00 -6°C° 0 mm 1 mps 759 mmHg 90%
    20:00 -8°C° 0 mm 1 mps 760 mmHg 91%
    21:00 -8°C° 0 mm 1 mps 760 mmHg 91%
    22:00 -8°C° 0 mm 1 mps 759 mmHg 91%
    23:00 -9°C° 0 mm 1 mps 759 mmHg 91%

    2 March, Friday

    Time Temperature Precipitation Wind Pressure Humidity
    00:00 -9°C° 0 mm 1 mps 759 mmHg 91%
    01:00 -9°C° 0 mm 1 mps 759 mmHg 91%
    02:00 -9°C° 0 mm 1 mps 759 mmHg 91%
    03:00 -8°C° 0 mm 1 mps 758 mmHg 91%
    04:00 -8°C° 0 mm 1 mps 758 mmHg 91%
    05:00 -8°C° 0 mm 1 mps 758 mmHg 91%
    06:00 -7°C° 0 mm 1 mps 757 mmHg 91%
    07:00 -6°C° 0 mm 1 mps 757 mmHg 92%
    08:00 -4°C° 0 mm 1 mps 757 mmHg 93%
    09:00 -4°C° 0 mm 2 mps 757 mmHg 94%
    10:00 -2°C° 0 mm 2 mps 756 mmHg 95%
    11:00 -1°C° 0 mm 2 mps 756 mmHg 97%
    12:00 +1°C° 0 mm 2 mps 756 mmHg 98%
    13:00 0°C° 0 mm 3 mps 755 mmHg 99%
    14:00 0°C° 0 mm 3 mps 754 mmHg 99%
    15:00 0°C° 0 mm 3 mps 754 mmHg 99%
    16:00 0°C° 0 mm 3 mps 754 mmHg 99%
    17:00 0°C° 0 mm 3 mps 753 mmHg 99%
    18:00 0°C° 0.1 mm 3 mps 753 mmHg 98%
    19:00 -1°C° 0.1 mm 4 mps 753 mmHg 97%
    20:00 -1°C° 0.1 mm 4 mps 753 mmHg 96%
    21:00 0°C° 0.1 mm 4 mps 753 mmHg 97%
    22:00 0°C° 0.1 mm 4 mps 752 mmHg 97%
    23:00 0°C° 0.1 mm 4 mps 752 mmHg 98%
    Show more